DF5HRN-13 Weather Reports


time (UTC)temp
F
wind
direction
speed
knots
gust
knots
rain 1hr
in
rain 24hr
in
rain mn
in
humidity
%
barometer
mb
20260505111505 68 135 3.5 8.7 0.00 0.00 0.00 42 1017.0
20260505101505 72 158 0.9 8.7 0.00 0.00 0.00 42 1018.0
20260505100005 71 158 3.5 8.7 0.00 0.00 0.00 42 1018.0
20260505094505 72 158 1.7 8.7 0.00 0.00 0.00 42 1018.0
20260505093005 72 180 2.6 8.7 0.00 0.00 0.00 41 1018.0
20260505091505 70 203 1.7 8.7 0.00 0.00 0.00 41 1018.0
20260505090005 73 135 0.0 8.7 0.00 0.00 0.00 41 1018.0
20260505084505 72 135 0.0 8.7 0.00 0.00 0.00 41 1018.0
20260505083005 72 158 0.0 8.7 0.00 0.00 0.00 41 1018.0
20260505081505 70 158 0.0 8.7 0.00 0.00 0.00 41 1018.0
20260505080005 69 135 0.0 8.7 0.00 0.00 0.00 41 1018.0
20260505074505 68 68 0.0 8.7 0.00 0.00 0.00 41 1018.0
20260505073005 67 23 0.0 8.7 0.00 0.00 0.00 41 1019.0
20260505071505 66 23 0.0 8.7 0.00 0.00 0.00 41 1019.0
20260505070005 65 0 0.0 8.7 0.00 0.00 0.00 41 1019.0
20260505064505 64 0 0.0 8.7 0.00 0.00 0.00 41 1019.0
20260505063005 63 315 0.0 8.7 0.00 0.00 0.00 41 1019.0
20260505061505 62 315 0.0 8.7 0.00 0.00 0.00 41 1019.0
20260505060005 60 315 0.0 8.7 0.00 0.00 0.00 41 1019.0
20260505054505 59 315 0.0 8.7 0.00 0.00 0.00 41 1019.0
20260505053005 58 203 0.0 8.7 0.00 0.00 0.00 41 1019.0
20260505051505 57 203 0.0 8.7 0.00 0.00 0.00 41 1019.0
20260505041505 54 203 0.0 8.7 0.00 0.00 0.00 41 1019.0
20260505040005 52 203 0.0 8.7 0.00 0.00 0.00 40 1019.0
20260505034505 53 203 0.0 8.7 0.00 0.00 0.00 40 1019.0
20260505033005 54 203 0.0 8.7 0.00 0.00 0.00 40 1019.0
20260505031505 54 203 0.0 8.7 0.00 0.00 0.00 40 1019.0
20260505030005 55 203 0.0 8.7 0.00 0.00 0.00 40 1019.0
20260505024505 55 203 0.0 8.7 0.00 0.00 0.00 40 1019.0
20260505023005 56 203 0.0 8.7 0.00 0.00 0.00 40 1019.0
20260505021505 56 293 0.0 8.7 0.00 0.00 0.00 40 1020.0
20260505020005 56 293 0.0 8.7 0.00 0.00 0.00 40 1020.0
20260505014505 56 315 0.0 8.7 0.00 0.00 0.00 40 1020.0
20260505013005 56 315 0.0 8.7 0.00 0.00 0.00 40 1020.0
20260505011505 57 315 0.0 8.7 0.00 0.00 0.00 40 1020.0
20260505010005 58 315 0.0 8.7 0.00 0.00 0.00 40 1020.0
20260505004505 58 315 0.0 8.7 0.00 0.00 0.00 40 1020.0
20260505003005 59 315 0.0 8.7 0.00 0.00 0.00 40 1020.0
20260505001505 59 180 0.9 8.7 0.00 0.00 0.00 40 1020.0
20260505000005 59 180 0.0 8.7 0.00 0.00 0.00 40 1021.0
20260504234505 60 180 0.0 8.7 0.00 0.00 0.00 40 1020.0
20260504233005 59 248 0.0 8.7 0.00 0.00 0.00 40 1021.0
20260504231505 60 248 0.0 8.7 0.00 0.00 0.00 40 1021.0
20260504230005 60 248 0.0 8.7 0.00 0.00 0.00 40 1021.0
20260504224505 59 248 0.0 8.7 0.00 0.00 0.00 40 1021.0
20260504223005 61 225 0.0 8.7 0.00 0.00 0.00 40 1021.0
20260504221505 60 248 0.0 8.7 0.00 0.00 0.00 40 1021.0
20260504220005 61 248 0.0 8.7 0.00 0.00 0.00 39 1021.0
20260504204505 65 45 0.0 8.7 0.00 0.00 0.00 39 1021.0
20260504203005 65 45 0.0 8.7 0.00 0.00 0.00 39 1021.0
20260504201505 65 68 0.0 8.7 0.00 0.00 0.00 39 1021.0
20260504200005 65 68 0.0 8.7 0.00 0.00 0.00 39 1022.0
20260504194505 66 45 0.0 8.7 0.00 0.00 0.00 39 1022.0
20260504193005 66 68 0.0 8.7 0.00 0.00 0.00 37 1022.0
20260504191505 67 68 0.0 8.7 0.00 0.00 0.00 39 1022.0
20260504190005 67 68 0.0 8.7 0.00 0.00 0.00 40 1022.0
20260504184505 68 68 0.0 8.7 0.00 0.00 0.00 39 1021.0
20260504183005 68 0 0.0 8.7 0.00 0.00 0.00 39 1021.0
20260504181505 69 315 1.7 8.7 0.00 0.00 0.00 39 1021.0
20260504180005 69 270 0.0 8.7 0.00 0.00 0.00 39 1021.0
20260504174505 69 270 0.0 8.7 0.00 0.00 0.00 38 1021.0
20260504173005 70 315 0.0 8.7 0.00 0.00 0.00 38 1021.0
20260504171506 70 23 0.0 8.7 0.00 0.00 0.00 38 1021.0